Location: Wildlife_Club
(35.6000°N, 81.4330°W)
Time: 17:17:09
(UTC-04:00)

Courier 1B - Visible Passes

Search period start: 24 June 2019 00:00
Search period end: 04 July 2019 00:00
Orbit: 963 x 1209 km, 28.3° (Epoch: 23 June)

Date Brightness Start Highest point End Pass type
(mag) Time Alt. Az. Time Alt. Az. Time Alt. Az.
24 Jun 9.7 00:37:21 10° WSW 00:38:46 14° WSW 00:38:46 14° WSW visible
24 Jun 8.3 21:48:39 10° WSW 21:55:32 45° S 22:01:08 17° SE visible
24 Jun 9.0 23:43:06 10° WSW 23:48:00 26° SW 23:48:00 26° SW visible
25 Jun 8.6 22:49:05 10° WSW 22:55:30 32° SSW 22:57:15 29° S visible
26 Jun 8.5 21:55:12 10° W 22:01:44 37° SSW 22:06:30 19° SE visible
26 Jun 9.5 23:50:31 10° WSW 23:53:23 16° SW 23:53:23 16° SW visible
27 Jun 9.1 22:56:07 10° WSW 23:01:35 22° SSW 23:02:39 22° SSW visible
28 Jun 8.9 22:02:01 10° WSW 22:07:53 27° SSW 22:11:58 17° SSE visible
29 Jun 8.8 21:08:05 10° WSW 21:14:10 32° SSW 21:20:34 10° SE visible
29 Jun 9.6 23:04:12 10° WSW 23:07:38 14° SSW 23:08:11 14° SSW visible
30 Jun 9.4 22:09:25 10° WSW 22:13:57 18° SSW 22:17:33 13° S visible
01 Jul 9.2 21:15:08 10° WSW 21:20:18 22° SSW 21:25:41 10° SSE visible
03 Jul 9.7 21:23:15 10° SW 21:26:23 13° SSW 21:29:35 10° S visible
